AAL1673 KCLT-KSRQ

Flight info

Callsign AAL1673
Flight time 1h 28m
Altitude 32000
Route ICONS5 NOOKS RIELE Q103 PUPYY KYYUU LUBBR4
Aircraft B738/M-SDE2E3FGHIRWXY/LB1

Departure

Time 2026-05-09 16:13
Airport Charlotte Douglas International Airport (KCLT)

Arrival

Time 2026-05-09 17:42
Airport Sarasota Bradenton International Airport (KSRQ)
Time Latitude Longitude Altitude Speed Heading
2026-05-09 15:42 35.21794 -80.94146 722 ft 0 kts 282°
2026-05-09 16:00 35.21793 -80.94135 722 ft 1 kts 282°
2026-05-09 16:01 35.21790 -80.94119 723 ft 2 kts 282°
2026-05-09 16:01 35.21786 -80.94101 723 ft 2 kts 250°
2026-05-09 16:01 35.21798 -80.94090 722 ft 2 kts 188°
2026-05-09 16:01 35.21813 -80.94090 721 ft 2 kts 169°
2026-05-09 16:02 35.21814 -80.94090 721 ft 0 kts 169°
2026-05-09 16:08 35.21808 -80.94089 721 ft 5 kts 167°
2026-05-09 16:08 35.21774 -80.94064 725 ft 6 kts 141°
2026-05-09 16:08 35.21760 -80.94018 723 ft 6 kts 79°
2026-05-09 16:09 35.21789 -80.93968 724 ft 8 kts 49°
2026-05-09 16:09 35.21826 -80.93917 724 ft 8 kts 48°
2026-05-09 16:09 35.21865 -80.93864 726 ft 8 kts 48°
2026-05-09 16:09 35.21903 -80.93812 725 ft 8 kts 49°
2026-05-09 16:10 35.21946 -80.93752 726 ft 11 kts 48°
2026-05-09 16:10 35.22008 -80.93712 725 ft 10 kts
2026-05-09 16:10 35.22079 -80.93714 729 ft 10 kts 358°
2026-05-09 16:10 35.22147 -80.93720 729 ft 10 kts 351°
2026-05-09 16:11 35.22216 -80.93732 728 ft 11 kts 357°
2026-05-09 16:11 35.22298 -80.93737 729 ft 12 kts 357°
2026-05-09 16:11 35.22380 -80.93742 729 ft 12 kts 355°
2026-05-09 16:11 35.22447 -80.93748 730 ft 9 kts 356°
2026-05-09 16:12 35.22502 -80.93721 730 ft 9 kts 60°
2026-05-09 16:12 35.22507 -80.93634 730 ft 11 kts 122°
2026-05-09 16:12 35.22322 -80.93601 729 ft 64 kts 176°
2026-05-09 16:12 35.21598 -80.93538 724 ft 142 kts 176°
2026-05-09 16:13 35.20459 -80.93434 1124 ft 178 kts 176°
2026-05-09 16:13 35.19157 -80.93282 1810 ft 201 kts 177°
2026-05-09 16:13 35.17698 -80.93158 2409 ft 221 kts 183°
2026-05-09 16:13 35.16126 -80.93142 2985 ft 229 kts 184°
2026-05-09 16:14 35.14507 -80.93155 3546 ft 235 kts 186°
2026-05-09 16:14 35.12858 -80.93302 4203 ft 246 kts 188°
2026-05-09 16:14 35.11109 -80.93498 4881 ft 258 kts 188°
2026-05-09 16:14 35.09302 -80.93699 5705 ft 263 kts 189°
2026-05-09 16:15 35.07461 -80.93899 6559 ft 267 kts 190°
2026-05-09 16:15 35.05598 -80.94096 7378 ft 271 kts 191°
2026-05-09 16:15 35.03710 -80.94291 8236 ft 273 kts 191°
2026-05-09 16:15 35.01807 -80.94486 9100 ft 275 kts 192°
2026-05-09 16:16 34.99909 -80.94678 9928 ft 279 kts 192°
2026-05-09 16:16 34.97967 -80.94875 10674 ft 282 kts 192°
2026-05-09 16:16 34.96001 -80.95072 11431 ft 286 kts 192°
2026-05-09 16:16 34.93999 -80.95273 12192 ft 289 kts 192°
2026-05-09 16:17 34.91985 -80.95474 12958 ft 292 kts 193°
2026-05-09 16:17 34.89941 -80.95678 13690 ft 297 kts 193°
2026-05-09 16:17 34.87867 -80.95885 14325 ft 302 kts 193°
2026-05-09 16:17 34.85763 -80.96093 15016 ft 304 kts 193°
2026-05-09 16:18 34.83640 -80.96304 15741 ft 308 kts 193°
2026-05-09 16:18 34.81491 -80.96519 16390 ft 312 kts 193°
2026-05-09 16:18 34.79307 -80.96729 17061 ft 317 kts 192°
2026-05-09 16:18 34.77075 -80.96839 17739 ft 323 kts 190°
2026-05-09 16:19 34.74817 -80.96900 18385 ft 327 kts 190°
2026-05-09 16:19 34.72526 -80.96954 18963 ft 330 kts 190°
2026-05-09 16:19 34.70221 -80.97012 19573 ft 332 kts 191°
2026-05-09 16:19 34.67903 -80.97078 20164 ft 335 kts 191°
2026-05-09 16:20 34.65591 -80.97149 20712 ft 338 kts 191°
2026-05-09 16:20 34.63223 -80.97225 21243 ft 342 kts 191°
2026-05-09 16:20 34.60828 -80.97321 21774 ft 345 kts 193°
2026-05-09 16:20 34.58429 -80.97518 22353 ft 346 kts 194°
2026-05-09 16:21 34.56019 -80.97759 22910 ft 349 kts 195°
2026-05-09 16:21 34.53587 -80.98010 23464 ft 352 kts 195°
2026-05-09 16:21 34.51132 -80.98260 23923 ft 355 kts 195°
2026-05-09 16:21 34.48664 -80.98504 24442 ft 355 kts 195°
2026-05-09 16:22 34.46198 -80.98739 24983 ft 355 kts 195°
2026-05-09 16:22 34.43768 -80.98968 25534 ft 355 kts 196°
2026-05-09 16:22 34.41376 -80.99193 26034 ft 356 kts 196°
2026-05-09 16:22 34.38902 -80.99425 26520 ft 357 kts 196°
2026-05-09 16:23 34.36430 -80.99655 27070 ft 355 kts 196°
2026-05-09 16:23 34.33978 -80.99879 27713 ft 351 kts 196°
2026-05-09 16:23 34.31561 -81.00100 28393 ft 346 kts 197°
2026-05-09 16:23 34.29174 -81.00318 29048 ft 342 kts 197°
2026-05-09 16:24 34.26813 -81.00537 29634 ft 339 kts 197°
2026-05-09 16:24 34.24472 -81.00756 30166 ft 337 kts 198°
2026-05-09 16:24 34.22144 -81.00974 30609 ft 335 kts 198°
2026-05-09 16:24 34.19819 -81.01192 30980 ft 335 kts 199°
2026-05-09 16:25 34.17494 -81.01411 31348 ft 335 kts 199°
2026-05-09 16:25 34.15957 -81.01554 31609 ft 334 kts 199°
2026-05-09 16:25 34.12844 -81.01846 31915 ft 338 kts 198°
2026-05-09 16:25 34.10503 -81.02069 31959 ft 344 kts 198°
2026-05-09 16:26 34.05706 -81.02510 31973 ft 345 kts 197°
2026-05-09 16:26 34.00970 -81.02940 31969 ft 340 kts 198°
2026-05-09 16:27 33.96312 -81.03604 31978 ft 331 kts 205°
2026-05-09 16:27 33.91787 -81.04842 31997 ft 340 kts 206°
2026-05-09 16:28 33.87839 -81.05967 31965 ft 355 kts 204°
2026-05-09 16:28 33.82943 -81.07324 31988 ft 372 kts 203°
2026-05-09 16:29 33.77780 -81.08726 31993 ft 387 kts 202°
2026-05-09 16:29 33.72403 -81.10173 31981 ft 405 kts 202°
2026-05-09 16:30 33.66806 -81.11672 31988 ft 419 kts 202°
2026-05-09 16:30 33.61030 -81.13215 31952 ft 430 kts 202°
2026-05-09 16:31 33.55160 -81.14776 31967 ft 433 kts 201°
2026-05-09 16:31 33.49307 -81.16332 31972 ft 434 kts 201°
2026-05-09 16:32 33.43407 -81.17903 31975 ft 435 kts 201°
2026-05-09 16:32 33.37505 -81.19474 31997 ft 433 kts 201°
2026-05-09 16:33 33.31627 -81.21036 32002 ft 431 kts 202°
2026-05-09 16:33 33.25770 -81.22592 32012 ft 430 kts 202°
2026-05-09 16:34 33.19930 -81.24142 32013 ft 429 kts 202°
2026-05-09 16:34 33.14101 -81.25688 32013 ft 429 kts 202°
2026-05-09 16:35 33.08267 -81.27232 32009 ft 429 kts 202°
2026-05-09 16:35 33.02470 -81.28765 32005 ft 429 kts 202°
2026-05-09 16:36 32.90799 -81.31843 32009 ft 430 kts 202°
2026-05-09 16:37 32.84950 -81.33383 31979 ft 430 kts 202°
2026-05-09 16:37 32.79098 -81.34921 31995 ft 431 kts 202°
2026-05-09 16:38 32.73240 -81.36459 32002 ft 431 kts 202°
2026-05-09 16:38 32.67416 -81.37986 31998 ft 431 kts 202°
2026-05-09 16:39 32.61576 -81.39551 32010 ft 428 kts 204°
2026-05-09 16:39 32.55838 -81.41532 31994 ft 428 kts 206°
2026-05-09 16:40 32.50168 -81.43588 31996 ft 424 kts 206°
2026-05-09 16:42 32.27677 -81.51574 31992 ft 423 kts 206°
2026-05-09 16:42 32.22035 -81.53559 32007 ft 424 kts 206°
2026-05-09 16:43 32.16376 -81.55549 32006 ft 425 kts 206°
2026-05-09 16:43 32.10686 -81.57546 32009 ft 426 kts 205°
2026-05-09 16:44 32.04992 -81.59542 31986 ft 427 kts 205°
2026-05-09 16:44 31.99285 -81.61539 32005 ft 428 kts 205°
2026-05-09 16:45 31.93607 -81.63524 32006 ft 428 kts 205°
2026-05-09 16:45 31.87894 -81.65519 32002 ft 428 kts 205°
2026-05-09 16:46 31.82177 -81.67513 32003 ft 429 kts 205°
2026-05-09 16:46 31.76465 -81.69501 32001 ft 427 kts 205°
2026-05-09 16:47 31.70770 -81.71482 32006 ft 426 kts 205°
2026-05-09 16:47 31.65090 -81.73455 32004 ft 425 kts 205°
2026-05-09 16:48 31.59414 -81.75425 32041 ft 424 kts 205°
2026-05-09 16:48 31.53760 -81.77384 32057 ft 423 kts 205°
2026-05-09 16:49 31.48162 -81.79323 32044 ft 421 kts 206°
2026-05-09 16:50 31.39769 -81.82320 32038 ft 415 kts 210°
2026-05-09 16:50 31.34475 -81.84921 32034 ft 412 kts 212°
2026-05-09 16:51 31.29217 -81.87601 32028 ft 412 kts 212°
2026-05-09 16:51 31.23941 -81.90252 32010 ft 412 kts 212°
2026-05-09 16:52 31.18669 -81.92869 32007 ft 412 kts 212°
2026-05-09 16:52 31.13392 -81.95478 32015 ft 411 kts 211°
2026-05-09 16:53 31.08153 -81.98063 32013 ft 411 kts 211°
2026-05-09 16:53 31.02883 -82.00662 32021 ft 411 kts 211°
2026-05-09 16:54 30.97604 -82.03262 32003 ft 411 kts 212°
2026-05-09 16:54 30.92337 -82.05853 32022 ft 411 kts 212°
2026-05-09 16:55 30.87048 -82.08453 32029 ft 412 kts 211°
2026-05-09 16:55 30.81784 -82.11037 32044 ft 414 kts 211°
2026-05-09 16:56 30.76455 -82.13651 32028 ft 416 kts 211°
2026-05-09 16:56 30.71116 -82.16264 31979 ft 416 kts 211°
2026-05-09 16:57 30.65772 -82.18877 32018 ft 417 kts 211°
2026-05-09 16:57 30.63018 -82.20018 32013 ft 429 kts 201°
2026-05-09 16:57 30.60003 -82.20423 32056 ft 439 kts 194°
2026-05-09 16:58 30.53882 -82.21020 32031 ft 441 kts 194°
2026-05-09 16:58 30.47762 -82.21687 32023 ft 443 kts 195°
2026-05-09 16:59 30.41661 -82.22377 32027 ft 444 kts 195°
2026-05-09 16:59 30.35496 -82.23078 32036 ft 447 kts 195°
2026-05-09 17:00 30.29261 -82.23783 32017 ft 450 kts 195°
2026-05-09 17:00 30.23030 -82.24482 32021 ft 450 kts 195°
2026-05-09 17:01 30.16794 -82.25183 31987 ft 451 kts 194°
2026-05-09 17:01 30.13619 -82.25250 32022 ft 462 kts 185°
2026-05-09 17:01 30.10412 -82.24888 32022 ft 466 kts 182°
2026-05-09 17:02 30.04005 -82.23905 32025 ft 467 kts 182°
2026-05-09 17:02 29.97548 -82.22957 32027 ft 467 kts 182°
2026-05-09 17:03 29.91094 -82.22102 31790 ft 467 kts 183°
2026-05-09 17:04 29.69808 -82.19371 28805 ft 421 kts 183°
2026-05-09 17:05 29.66906 -82.19002 28371 ft 418 kts 183°
2026-05-09 17:05 29.64018 -82.18635 27935 ft 416 kts 183°
2026-05-09 17:05 29.61141 -82.18268 27512 ft 415 kts 183°
2026-05-09 17:05 29.58269 -82.17901 27090 ft 414 kts 182°
2026-05-09 17:06 29.55427 -82.17540 26752 ft 411 kts 182°
2026-05-09 17:06 29.52573 -82.17180 26325 ft 411 kts 182°
2026-05-09 17:06 29.49736 -82.16824 25912 ft 410 kts 182°
2026-05-09 17:06 29.46894 -82.16467 25493 ft 410 kts 182°
2026-05-09 17:07 29.44100 -82.16116 25064 ft 409 kts 182°
2026-05-09 17:07 29.43145 -82.15995 24929 ft 406 kts 182°
2026-05-09 17:07 29.38532 -82.15410 24221 ft 396 kts 182°
2026-05-09 17:07 29.35813 -82.15067 23809 ft 392 kts 181°
2026-05-09 17:08 29.33111 -82.14728 23349 ft 388 kts 181°
2026-05-09 17:08 29.27789 -82.14062 22482 ft 380 kts 181°
2026-05-09 17:08 29.25164 -82.13734 22063 ft 377 kts 181°
2026-05-09 17:09 29.22567 -82.13409 21672 ft 374 kts 181°
2026-05-09 17:09 29.19987 -82.13086 21283 ft 372 kts 181°
2026-05-09 17:09 29.17410 -82.12765 20903 ft 370 kts 181°
2026-05-09 17:09 29.14853 -82.12578 20530 ft 366 kts 185°
2026-05-09 17:10 29.12349 -82.12518 20150 ft 364 kts 186°
2026-05-09 17:10 29.09819 -82.12496 19758 ft 363 kts 186°
2026-05-09 17:10 29.07292 -82.12475 19371 ft 362 kts 186°
2026-05-09 17:10 29.04774 -82.12446 18985 ft 362 kts 185°
2026-05-09 17:11 29.02253 -82.12409 18582 ft 362 kts 185°
2026-05-09 17:11 28.99737 -82.12364 18157 ft 361 kts 185°
2026-05-09 17:11 28.97229 -82.12316 17729 ft 360 kts 185°
2026-05-09 17:11 28.94726 -82.12264 17320 ft 358 kts 184°
2026-05-09 17:12 28.92243 -82.12212 16918 ft 356 kts 184°
2026-05-09 17:12 28.89774 -82.12160 16519 ft 353 kts 184°
2026-05-09 17:12 28.87326 -82.12109 16128 ft 351 kts 184°
2026-05-09 17:12 28.84897 -82.12058 15745 ft 348 kts 184°
2026-05-09 17:13 28.82490 -82.12008 15369 ft 345 kts 184°
2026-05-09 17:13 28.80089 -82.11958 14993 ft 343 kts 184°
2026-05-09 17:13 28.77736 -82.11909 14621 ft 342 kts 183°
2026-05-09 17:13 28.75365 -82.11860 14248 ft 340 kts 183°
2026-05-09 17:14 28.72997 -82.11811 13854 ft 340 kts 183°
2026-05-09 17:14 28.70642 -82.11763 13420 ft 338 kts 182°
2026-05-09 17:14 28.68294 -82.11713 13027 ft 336 kts 182°
2026-05-09 17:14 28.66751 -82.11619 12905 ft 333 kts 178°
2026-05-09 17:15 28.64465 -82.11313 12750 ft 331 kts 176°
2026-05-09 17:15 28.62161 -82.10950 12589 ft 336 kts 175°
2026-05-09 17:15 28.59838 -82.10585 12430 ft 337 kts 175°
2026-05-09 17:15 28.57523 -82.10231 12262 ft 335 kts 176°
2026-05-09 17:16 28.55219 -82.09892 12107 ft 334 kts 176°
2026-05-09 17:17 28.40171 -82.06787 11058 ft 295 kts 170°
2026-05-09 17:18 28.38171 -82.06264 10927 ft 296 kts 170°
2026-05-09 17:18 28.36159 -82.05744 10792 ft 297 kts 170°
2026-05-09 17:18 28.34142 -82.05227 10650 ft 297 kts 170°
2026-05-09 17:18 28.32121 -82.04709 10510 ft 298 kts 170°
2026-05-09 17:19 28.30095 -82.04192 10373 ft 298 kts 170°
2026-05-09 17:19 28.28058 -82.03771 10227 ft 297 kts 174°
2026-05-09 17:19 28.26017 -82.03471 10090 ft 296 kts 175°
2026-05-09 17:19 28.23977 -82.03191 9949 ft 295 kts 175°
2026-05-09 17:20 28.21945 -82.02906 9801 ft 294 kts 175°
2026-05-09 17:20 28.19921 -82.02613 9645 ft 293 kts 175°
2026-05-09 17:20 28.17923 -82.02318 9507 ft 292 kts 175°
2026-05-09 17:20 28.15900 -82.02016 9366 ft 293 kts 175°
2026-05-09 17:21 28.13869 -82.01712 9231 ft 296 kts 175°
2026-05-09 17:21 28.11838 -82.01690 9037 ft 291 kts 195°
2026-05-09 17:21 28.09987 -82.02509 8943 ft 281 kts 209°
2026-05-09 17:21 28.08283 -82.03536 8800 ft 274 kts 211°
2026-05-09 17:22 28.06641 -82.04563 8663 ft 265 kts 211°
2026-05-09 17:22 28.05058 -82.05554 8513 ft 254 kts 211°
2026-05-09 17:22 28.03545 -82.06495 8404 ft 243 kts 211°
2026-05-09 17:22 28.02093 -82.07394 8289 ft 233 kts 211°
2026-05-09 17:23 28.00692 -82.08258 8186 ft 227 kts 211°
2026-05-09 17:23 27.99302 -82.09114 8104 ft 230 kts 211°
2026-05-09 17:23 27.97876 -82.09990 8021 ft 236 kts 211°
2026-05-09 17:23 27.96416 -82.10886 7906 ft 240 kts 211°
2026-05-09 17:25 27.89123 -82.15337 7327 ft 237 kts 211°
2026-05-09 17:25 27.87671 -82.16222 7211 ft 236 kts 211°
2026-05-09 17:25 27.86226 -82.17102 7099 ft 235 kts 210°
2026-05-09 17:25 27.84787 -82.17979 6993 ft 235 kts 211°
2026-05-09 17:26 27.83355 -82.18850 6880 ft 232 kts 210°
2026-05-09 17:26 27.81945 -82.19708 6759 ft 228 kts 210°
2026-05-09 17:26 27.80560 -82.20550 6644 ft 225 kts 210°
2026-05-09 17:26 27.79186 -82.21385 6546 ft 224 kts 210°
2026-05-09 17:27 27.77815 -82.22218 6445 ft 223 kts 209°
2026-05-09 17:27 27.76511 -82.23161 6332 ft 225 kts 221°
2026-05-09 17:27 27.75334 -82.24354 6241 ft 231 kts 223°
2026-05-09 17:27 27.74124 -82.25577 6128 ft 234 kts 222°
2026-05-09 17:28 27.72906 -82.26798 6001 ft 233 kts 222°
2026-05-09 17:28 27.71716 -82.27983 5905 ft 221 kts 221°
2026-05-09 17:28 27.70592 -82.29099 5795 ft 209 kts 221°
2026-05-09 17:28 27.69531 -82.30149 5681 ft 198 kts 221°
2026-05-09 17:29 27.68498 -82.31169 5602 ft 194 kts 221°
2026-05-09 17:29 27.67497 -82.32158 5486 ft 189 kts 221°
2026-05-09 17:29 27.66521 -82.33120 5406 ft 184 kts 221°
2026-05-09 17:29 27.65555 -82.34071 5315 ft 186 kts 221°
2026-05-09 17:30 27.64573 -82.35038 5247 ft 189 kts 221°
2026-05-09 17:30 27.63574 -82.36021 5150 ft 192 kts 220°
2026-05-09 17:30 27.62585 -82.36993 5056 ft 191 kts 220°
2026-05-09 17:30 27.61589 -82.37987 4956 ft 191 kts 225°
2026-05-09 17:31 27.61026 -82.39305 4845 ft 191 kts 263°
2026-05-09 17:31 27.60975 -82.40797 4775 ft 192 kts 264°
2026-05-09 17:32 27.60806 -82.46924 4388 ft 195 kts 265°
2026-05-09 17:32 27.60765 -82.48438 4286 ft 191 kts 265°
2026-05-09 17:32 27.60724 -82.49934 4204 ft 192 kts 265°
2026-05-09 17:33 27.60682 -82.51458 4103 ft 197 kts 266°
2026-05-09 17:33 27.60639 -82.53011 4018 ft 199 kts 265°
2026-05-09 17:33 27.60596 -82.54571 3912 ft 198 kts 265°
2026-05-09 17:33 27.60553 -82.56120 3816 ft 197 kts 264°
2026-05-09 17:34 27.60510 -82.57660 3716 ft 195 kts 265°
2026-05-09 17:35 27.60264 -82.66049 3218 ft 170 kts 259°
2026-05-09 17:35 27.59732 -82.67184 3117 ft 169 kts 216°
2026-05-09 17:36 27.58777 -82.68050 3029 ft 179 kts 219°
2026-05-09 17:36 27.57844 -82.68949 2940 ft 175 kts 219°
2026-05-09 17:36 27.56945 -82.69816 2867 ft 169 kts 219°
2026-05-09 17:36 27.56051 -82.70668 2792 ft 166 kts 214°
2026-05-09 17:37 27.54985 -82.71080 2710 ft 161 kts 187°
2026-05-09 17:37 27.53876 -82.70999 2637 ft 160 kts 169°
2026-05-09 17:37 27.52848 -82.70500 2544 ft 165 kts 149°
2026-05-09 17:37 27.51948 -82.69675 2487 ft 169 kts 141°
2026-05-09 17:38 27.51129 -82.68773 2399 ft 163 kts 140°
2026-05-09 17:38 27.50348 -82.67879 2304 ft 158 kts 141°
2026-05-09 17:38 27.49575 -82.66992 2243 ft 159 kts 140°
2026-05-09 17:39 27.48005 -82.65196 2046 ft 162 kts 140°
2026-05-09 17:39 27.47206 -82.64280 2014 ft 167 kts 138°
2026-05-09 17:39 27.46381 -82.63337 1833 ft 167 kts 139°
2026-05-09 17:39 27.45574 -82.62412 1581 ft 163 kts 139°
2026-05-09 17:40 27.44797 -82.61521 1383 ft 159 kts 139°
2026-05-09 17:40 27.44015 -82.60628 1166 ft 160 kts 139°
2026-05-09 17:40 27.43249 -82.59749 950 ft 152 kts 141°
2026-05-09 17:40 27.42528 -82.58924 731 ft 146 kts 138°
2026-05-09 17:41 27.41780 -82.58066 611 ft 159 kts 140°
2026-05-09 17:41 27.41002 -82.57175 359 ft 157 kts 137°
2026-05-09 17:41 27.40251 -82.56322 93 ft 150 kts 134°
2026-05-09 17:41 27.39567 -82.55540 29 ft 124 kts 134°
2026-05-09 17:42 27.39170 -82.55084 27 ft 27 kts 134°
2026-05-09 17:42 27.39029 -82.54923 28 ft 29 kts 134°
2026-05-09 17:42 27.38909 -82.54833 30 ft 14 kts 187°
2026-05-09 17:42 27.38869 -82.54912 30 ft 13 kts 300°
2026-05-09 17:43 27.38932 -82.54986 29 ft 13 kts 314°
2026-05-09 17:43 27.38990 -82.55056 29 ft 11 kts 307°
2026-05-09 17:43 27.38972 -82.55131 30 ft 11 kts 225°
2026-05-09 17:43 27.38953 -82.55152 30 ft 3 kts 223°
2026-05-09 17:44 27.38923 -82.55183 30 ft 7 kts 223°
2026-05-09 17:44 27.38887 -82.55222 29 ft 7 kts 224°
2026-05-09 17:44 27.38875 -82.55273 30 ft 7 kts 276°
2026-05-09 17:44 27.38878 -82.55291 30 ft 0 kts 278°
2026-05-09 17:45 27.38879 -82.55303 30 ft 2 kts 278°
2026-05-09 17:45 27.38880 -82.55309 30 ft 0 kts 278°